Regional Weather Roundup
Issued by NWS

Home | Current Version | Previous Version | Graphics & Text | Print | Product List | Glossary On
Versions: 1 2 3 4 5 6 7 8 9 10 11 12 13 14 15 16 17 18 19 20 21 22 23 24 25 26 27 28 29 30 31 32 33 34 35 36 37 38 39 40 41 42 43 44 45 46 47 48 49 50
000
ASUS43 KDTX 282210
RWRMI
MICHIGAN HOURLY REGIONAL WEATHER ROUNDUP
NATIONAL WEATHER SERVICE DETROIT/PONTIAC MI
500 PM EST SAT FEB 28 2015

NOTE: "FAIR" INDICATES FEW OR NO CLOUDS BELOW 12,000 FEET WITH NO
SIGNIFICANT WEATHER AND/OR OBSTRUCTION TO VISIBILITY.

MIZ047>049-052>055-059>063-066>070-074>076-081>083-282300-
SOUTHEAST LOWER MICHIGAN

CITY           SKY/WX    TMP DP  RH WIND       PRES   REMARKS
ADRIAN         SUNNY     17   1  49 S7        30.64F WCI   8
ALMA           SUNNY     19   1  45 S7        30.60F WCI  10
ANN ARBOR      SUNNY     18   3  52 S7        30.63F WCI   9
BAD AXE        SUNNY     21   3  45 W5        30.61F WCI  15
CARO           SUNNY     22   3  45 W6        30.60F WCI  14
DETROIT CITY   SUNNY     20   3  48 S9        30.65F WCI   9
DETROIT        SUNNY     21   6  52 S8        30.66F WCI  11
FLINT          SUNNY     23   2  40 SW5       30.61F WCI  17
GROSSE ILE     SUNNY     18   5  57 SE7       30.65F WCI   8
HILLSDALE      MOSUNNY   18   2  48 SE6       30.58S WCI  10
HOWELL         SUNNY     21   0  39 S8        30.59F WCI  12

CITY           SKY/WX    TMP DP  RH WIND       PRES   REMARKS
JACKSON        SUNNY     19   0  43 SE10      30.59F WCI   7
LAMBERTVILLE   SUNNY     23   0  36 CALM      30.65F
LANSING        SUNNY     20  -1  40 S8        30.60F WCI  10
LAPEER         FAIR      22  -1  37 S5        30.60F WCI  16
MASON          SUNNY     21  -1  38 S5        30.59F WCI  15
MONROE         SUNNY     19   3  49 S7        30.64F WCI  10
MT. CLEMENS    SUNNY     17   6  60 S13       30.63F WCI   4
PONTIAC        MOSUNNY   20  -3  36 S7        30.60F WCI  11
PORT HOPE        N/A     21   1  41 SW5       30.61F WCI  15
PORT HURON     SUNNY     19   3  49 S9        30.66F WCI   9
TRI CITIES     SUNNY     21   2  43 SW6       30.61F WCI  13
TROY           SUNNY     25   4  40 S7        30.65F WCI  17
SAGINAW HB     SUNNY     23   3  42 SW7       30.61F WCI  15
$$
MIZ043>046-050>051-056>058-064>065-071>073-077>080-282300-
SOUTHWEST LOWER MICHIGAN

CITY           SKY/WX    TMP DP  RH WIND       PRES   REMARKS
BATTLE CREEK   SUNNY     20   0  41 S10       30.60F WCI   9
BENTON HARBOR  SUNNY     20   1  43 VRB5      30.59F WCI  13
BIG RAPIDS     SUNNY     23   4  45 S8        30.54F WCI  13
COLDWATER      SUNNY     19  -1  42 S5        30.58F WCI  12
FREMONT        FAIR      20   3  48 SW8       30.58S WCI  10
HOLLAND        SUNNY     20   6  55 W5        30.60F WCI  13
GRAND RAPIDS   MOSUNNY   20  -4  34 SW7       30.59F WCI  11
IONIA          FAIR      20   0  40 S5        30.59S WCI  14
KALAMAZOO      SUNNY     19   1  45 S5        30.60F WCI  12
LUDINGTON      SUNNY     21  11  65 SW13      30.58F WCI   8
MARSHALL       SUNNY     19   0  45 S7        30.59F WCI   9
MOUNT PLEASANT SUNNY     21   6  52 SE8       30.58F WCI  12
MUSKEGON       MOSUNNY   18   6  59 SW8       30.61F WCI   8
SOUTH HAVEN    SUNNY     22  -4  32 S7        30.60S WCI  13
$$
MIZ016>042-282300-
NORTHERN LOWER MICHIGAN

CITY           SKY/WX    TMP DP  RH WIND       PRES   REMARKS
ALPENA         SUNNY     28   1  31 SW8       30.53F WCI  20
BEAVER ISLAND  SUNNY     19  11  71 SW10G16   30.53S WCI   8
BELLAIRE       SUNNY     26   6  41 SW7       30.54F WCI  18
CADILLAC       SUNNY     22   5  48 S7        30.48F WCI  13
CHARLEVOIX     SUNNY     21  12  68 W7        30.56F WCI  12
FRANKFORT      SUNNY     20  11  69 SW12G17   30.56F WCI   8
GAYLORD        SUNNY     22   2  42 SW12      30.47F WCI  10
GRAYLING       SUNNY     24   2  39 S6        30.51F WCI  16
HARBOR SPRINGS SUNNY     21  11  63 W7        30.53F WCI  13
HOUGHTON LAKE  SUNNY     23   3  42 SW9       30.52F WCI  13
MANISTEE       SUNNY     21   3  45 S9        30.57F WCI  11
OSCODA         SUNNY     22   7  53 S12G18    30.57F WCI  11
PELLSTON       SUNNY     22   8  55 SW10      30.53F WCI  11
ROGERS CITY    SUNNY     23  12  61 E8        30.54F WCI  14
TRAVERSE CITY  MOSUNNY   25   3  38 SW6       30.53F WCI  18
$$
MIZ007>008-015-282300-
EASTERN UPPER MICHIGAN

CITY           SKY/WX    TMP DP  RH WIND       PRES   REMARKS
KINROSS        SUNNY     21   5  49 SW12G17   30.50F WCI   9
MACKINAC ISLAN SUNNY     19  10  68 W14G21    30.52F WCI   6
NEWBERRY       MOSUNNY   18   7  62 S16G23    30.47F WCI   3
S. S. MARIE    SUNNY     20   6  55 S16       30.50F WCI   6
MUNISING         N/A     24   1  36 S12G22    30.43F WCI  13
$$
MIZ004>006-011>014-085-282300-
CENTRAL UPPER MICHIGAN

CITY           SKY/WX    TMP DP  RH WIND       PRES   REMARKS
MANISTIQUE     SUNNY     20   9  63 SW12G21   30.49F WCI   8
ESCANABA       SUNNY     18   7  62 S16G25    30.49F WCI   3
MENOMINEE      SUNNY     19   1  45 SW13      30.50F WCI   7
SAWYER-GWINN   SUNNY     23   0  36 S16       30.38F WCI  10
$$
MIZ001>003-009>011-084-282300-
WESTERN UPPER MICHIGAN

CITY           SKY/WX    TMP DP  RH WIND       PRES   REMARKS
IRON MOUNTAIN  SUNNY     23  -1  35 S12       30.38F WCI  12
HOUGHTON       PTSUNNY   24  -3  30 SW13      30.32F WCI  12
COPPER HARBOR    N/A     20   7  57 NE5       30.36F WCI  13
IRONWOOD       SUNNY     21  -2  35 SW12G21   30.30F WCI   9
$$

ABBREVIATIONS USED IN REMARKS
   TC - TEMPERATURE IN CELSIUS
  WCI - WIND CHILL INDEX
   HX - HEAT INDEX
  VSB - VISIBILITY




USA.gov is the U.S. government's official web portal to all federal, state and local government web resources and services.